Regional Weather Roundup
Issued by NWS Charleston, SC

Current Version | Previous Version | Text Only | Print | Product List | Glossary Off
Versions: 1 2 3 4 5 6 7 8 9 10 11 12 13 14 15 16 17 18 19 20 21 22 23 24 25 26 27 28 29 30 31 32 33 34 35 36 37 38 39 40 41 42 43 44 45 46 47 48 49 50
000 ASUS42 KCHS 292212 RWRCHS REGIONAL WEATHER ROUNDUP NATIONAL WEATHER SERVICE CHARLESTON SC 600 PM EDT SAT APR 29 2017 NOTE: "FAIR" INDICATES FEW OR NO CLOUDS BELOW 12,000 FEET WITH NO SIGNIFICANT WEATHER AND/OR OBSTRUCTIONS TO VISIBILITY. NOT ALL STATIONS ARE QUALITY CONTROLLED. USE DATA WITH CAUTION... ESPECIALLY DEWPOINT OBSERVATIONS. SCZ027-030-031-034>040-042>050-292300- ...SOUTHEAST SOUTH CAROLINA... CITY SKY/WX TMP DP RH WIND PRES REMARKS N CHARLESTON PTSUNNY 80 67 64 S15 30.18S WATERFRONT PRK N/A 78 72 81 S13 30.16F JOHNS ISLAND MOCLDY 79 73 83 SE8 30.19S PINOPOLIS N/A 82 72 69 VRB3 30.09S MONCKS CORNER NOT AVBL SUMMERVILLE FAIR 81 70 69 SE5 30.18S BEAUFORT MCAS MOSUNNY 81 72 74 S10G20 30.17F BEAUFORT ARPT FAIR 79 70 73 S9 30.17S HILTON HEAD IS NOT AVBL WALTERBORO MOCLDY 82 68 61 S13 30.17S ALLENDALE FAIR 86 68 54 SE12 30.12F ...SOUTHERN MIDLANDS AND PEE DEE... CITY SKY/WX TMP DP RH WIND PRES REMARKS GEORGETOWN FAIR 79 70 73 S8 30.20R KINGSTREE FAIR 84 68 58 S8 30.15R ORANGEBURG MOSUNNY 85 68 56 S12 30.14S BARNWELL FAIR 88 70 55 S12 30.12F HX 92 AIKEN FAIR 84 64 51 SE7 30.16S MANNING FAIR 82 68 61 S12G17 30.15S COLUMBIA MOSUNNY 89 65 44 S10 30.12S HX 91 SUMTER CLOUDY 85 67 54 S13 30.12S FLORENCE MOSUNNY 86 65 49 SW10 30.14S MYRTLE BEACH MOSUNNY 81 72 74 S14 30.18F N MYRTLE BEACH SUNNY 78 72 81 S14 30.18F $$ GAZ063-065-086>088-099>101-113>116-118-119-134>141-150-292300- ...SOUTHEAST GEORGIA... CITY SKY/WX TMP DP RH WIND PRES REMARKS SAVANNAH ARPT CLOUDY 82 67 60 SE16 30.15F HUNTER AAF MOSUNNY 80 74 82 SE9 30.14S FORT STEWART CLOUDY 82 68 62 SE8G18 30.12S STATESBORO CLOUDY 87 66 49 SE9G16 30.12S SYLVANIA PTCLDY N/A N/A N/A SE8 30.14S CLAXTON FAIR 85 71 63 E5 30.12S HX 91 ...CSRA...CENTRAL AND FAR SOUTHEAST GEORGIA... CITY SKY/WX TMP DP RH WIND PRES REMARKS THOMSON CLOUDY 85 68 57 SW5 30.15S AUGUSTA-BUSH MOSUNNY 88 67 49 SE8 30.09F HX 91 AUGUSTA-DANIEL CLOUDY 88 63 43 SE12 30.11F SWAINSBORO FAIR 88 63 42 S9 30.11S VIDALIA PTSUNNY 90 66 45 SE7 30.10S HX 92 EASTMAN FAIR 89 47 23 S5 30.11F HAZLEHURST FAIR 90 64 42 S5 30.08F HX 91 ALMA CLOUDY 90 65 43 SE7 30.09S HX 92 WAYCROSS CLOUDY 91 74 58 E15G22 30.09S HX 100 JESUP FAIR 82 66 57 SE8G16 30.13S BAXLEY PTSUNNY 88 73 62 SE8G16 30.09S HX 96 BRUNSWICK MOSUNNY 81 72 74 SE12G20 30.16S SAINT SIMONS MOSUNNY 79 70 74 SE14 30.15F $$ SCZ027-028-034-036>038-045-046-048>050-GAZ119-141-292300- ...LAKE AND SUPPLEMENTAL COASTAL OBSERVATIONS... STATION/POSITION TIME TEMP WIND PRES WAVE SWELL AIR SEA DIR/SP/G HT/PER HT/PER/DIR (UTC) (F) (DEG/KT/KT) (MB) (FT/S) (FT/S/D) WINYAH BAY 2045 80 190/ 12 1022.0 LAKE MURRAY 2120 93 CALM / 2 1019.3F ACE BASIN NERRS NOT AVBL FORT PULASKI 2148 79 77 170/ 8/ 12 1022.0F SAPELO ISLAND 2100 82 150/ 12 1021.0 $$ ANZ835-935-AMZ111-154-330-350-352-354-370-450-454-472-292300- ...C-MAN AND BUOY OBSERVATIONS... STATION/POSITION TIME TEMP WIND PRES WAVE SWELL AIR SEA DIR/SP/G HT/PER HT/PER/DIR (UTC) (F) (DEG/KT/KT) (MB) (FT/S) (FT/S/D) BUOY 41004 2150 77 76 170/ 8/ 10 1022.4F 3/ 6 3/140/ 6 BUOY 41008 2150 76 76 130/ 10/ 10 1021.3F 3/ 5 3/130/ 5 FOLLY BEACH CMAN 2100 77 170/ 9/ 10 1023.0F CAPERS NEARSHORE 2108 78 76 190/ 10/ 14 1022.3F FRIPP NEARSHORE 2108 77 78 160/ 8/ 10 1022.1F STATION/POSITION TIME TEMP WIND PRES WAVE SWELL AIR SEA DIR/SP/G HT/PER HT/PER/DIR (UTC) (F) (DEG/KT/KT) (MB) (FT/S) (FT/S/D) 5E ST. MARYS GA 2130 76 N/A 3/ 5 FRYING PAN BUOY 2150 76 75 190/ 8/ 10 1022.9F 3/ 5 3/160/ 5 BUOY 41025 2150 77 76 210/ 16/ 19 1022.4F 4/ 5 2/130/ 7 CAPE LOOKOUT NC 2200 76 200/ 10/ 13 1022.1F BUOY 41002 2150 75 76 150/ 14/ 16 1024.4S 3/ 8 2/ 60/ 8 BUOY 41010 2150 78 78 120/ 14/ 17 1021.8F 4/ 7 3/110/ 7 ST AUGUSTINE FL 2200 76 80 130/ 12/ 13 1021.7R $$

USA.gov is the U.S. government's official web portal to all federal, state and local government web resources and services.